Flag for Switzerland Weather past 2 weeks in Emmen, Lucerne, Switzerland

Now
49 °F

Cool.


Feels Like: 49 °F
Forecast: 37 / 63 °F
Wind: 2 mph from Northeast

Location: Giswil

Current Time: Apr 19, 2015 at 1:42:16 PM

Latest Report: Apr 19, 2015 at 1:00 PM


Visibility: N/A

Pressure: 30.06 "Hg

Humidity: 64%

Dew point: 37 °F

Location of EmmenLocation

Historic Weather in Emmen — Graph

°F

Emmen temperature yesterday

Maximum temperature yesterday: 51 °F (at 12:00 AM)
Minimum temperature yesterday: 39 °F (at 11:00 PM)
Average temperature yesterday: 46 °F

Past Weeks' High & Low Weather Summary

 TemperatureHumidityPressure
High73 °F (Apr 15, 5:00 PM)100% (Apr 18, 2:00 AM)30.63 "Hg (Apr 18, 2:00 AM)
Low24 °F (Apr 6, 7:00 AM)24% (Apr 9, 5:00 PM)29.84 "Hg (Apr 4, 5:00 PM)
Average47 °F73%30.27 "Hg
* Reported Apr 4 12:00 Noon — Apr 19 12:00 Noon, Emmen, Weather by CustomWeather, © 2015

Note: Actual official high and low records may vary slightly from our data, if they occured in-between our weather recording intervals... More about our weather records

Advertising

Emmen weather history for previous 24 hours

 ConditionsComfort  
Time TempWeatherWind HumidityBarometerVisibility
12:00 PM
Sun, Apr 19
47 °FCool.2 mph71%30.06 "HgN/A
11:00 AM46 °FCool.2 mph69%30.08 "HgN/A
10:00 AM44 °FQuite cool.2 mph73%30.06 "HgN/A
9:00 AM41 °FQuite cool.1 mph88%30.07 "HgN/A
8:00 AM35 °FChilly.No wind100%30.09 "HgN/A
7:00 AM32 °FChilly.1 mph99%30.11 "HgN/A
6:00 AM33 °FChilly.1 mph99%30.12 "HgN/A
4:00 AM36 °FChilly.1 mph99%30.12 "HgN/A
3:00 AM42 °FQuite cool.1 mph88%30.11 "HgN/A
2:00 AM42 °FQuite cool.1 mph89%30.12 "HgN/A
1:00 AM40 °FChilly.1 mph96%30.13 "HgN/A
12:00 AM41 °FQuite cool.No wind96%30.14 "HgN/A
11:00 PM
Sat, Apr 18
39 °FChilly.2 mph95%30.16 "HgN/A
10:00 PM40 °FChilly.1 mph98%30.17 "HgN/A
9:00 PM45 °FQuite cool.1 mph92%30.15 "HgN/A
8:00 PM47 °FCool.1 mph84%30.14 "HgN/A
7:00 PM48 °FCool.1 mph82%30.15 "HgN/A
6:00 PM48 °FCool.No wind74%30.15 "HgN/A
5:00 PM48 °FCool.1 mph76%30.16 "HgN/A
4:00 PM47 °FCool.1 mph74%30.17 "HgN/A
3:00 PM46 °FCool.2 mph80%30.19 "HgN/A
2:00 PM44 °FQuite cool.3 mph90%30.20 "HgN/A
1:00 PM44 °FQuite cool.3 mph89%30.20 "HgN/A
Weather by CustomWeather, © 2015

See weather overviewHow to use our weather pages